| time (UTC) | temp F | wind direction | speed MPH | gust MPH | rain 1hr in | rain 24hr in | rain mn in | humidity % | barometer mb |
| 20260504010859 | 51 | 117 | 3.0 | 9.0 | 0.00 | 0.02 | 0.02 | 75 | 1011.1 |
| 20260504005728 | 51 | 139 | 3.0 | 11.0 | 0.00 | 0.02 | 0.02 | 75 | 1011.1 |
| 20260504004532 | 52 | 98 | 3.0 | 12.0 | 0.00 | 0.02 | 0.02 | 75 | 1011.2 |
| 20260504003336 | 52 | 116 | 3.0 | 12.0 | 0.00 | 0.02 | 0.02 | 76 | 1011.1 |
| 20260504002108 | 52 | 144 | 3.0 | 11.0 | 0.00 | 0.02 | 0.02 | 77 | 1011.4 |
| 20260504000915 | 52 | 119 | 3.0 | 9.0 | 0.00 | 0.02 | 0.02 | 76 | 1011.6 |
| 20260503235733 | 52 | 155 | 3.0 | 9.0 | 0.00 | 0.02 | 0.02 | 76 | 1011.6 |
| 20260503234501 | 52 | 119 | 4.0 | 9.0 | 0.00 | 0.02 | 0.02 | 76 | 1011.8 |
| 20260503233229 | 52 | 135 | 3.0 | 11.0 | 0.00 | 0.02 | 0.02 | 76 | 1012.0 |
| 20260503232008 | 52 | 109 | 3.0 | 11.0 | 0.00 | 0.02 | 0.02 | 76 | 1012.0 |
| 20260503230833 | 52 | 162 | 3.0 | 8.0 | 0.00 | 0.02 | 0.02 | 77 | 1012.1 |
| 20260503225602 | 52 | 134 | 3.0 | 8.0 | 0.00 | 0.02 | 0.02 | 79 | 1012.3 |
| 20260503224410 | 52 | 118 | 3.0 | 11.0 | 0.00 | 0.02 | 0.02 | 79 | 1012.4 |
| 20260503223206 | 52 | 126 | 4.0 | 9.0 | 0.00 | 0.02 | 0.02 | 80 | 1012.4 |
| 20260503222001 | 50 | 117 | 3.0 | 7.0 | 0.00 | 0.02 | 0.02 | 83 | 1012.5 |
| 20260503220727 | 50 | 155 | 3.0 | 9.0 | 0.00 | 0.02 | 0.02 | 83 | 1012.6 |
| 20260503215544 | 49 | 111 | 3.0 | 11.0 | 0.00 | 0.02 | 0.02 | 83 | 1012.7 |
| 20260503214408 | 49 | 152 | 1.0 | 7.0 | 0.00 | 0.02 | 0.02 | 84 | 1012.8 |
| 20260503213150 | 49 | 92 | 4.0 | 14.0 | 0.00 | 0.01 | 0.01 | 84 | 1012.9 |
| 20260503212008 | 49 | 119 | 3.0 | 9.0 | 0.00 | 0.01 | 0.01 | 84 | 1013.1 |
| 20260503210736 | 49 | 123 | 4.0 | 11.0 | 0.00 | 0.01 | 0.01 | 83 | 1013.3 |
| 20260503205558 | 49 | 134 | 3.0 | 12.0 | 0.00 | 0.01 | 0.01 | 84 | 1013.6 |
| 20260503204327 | 48 | 107 | 3.0 | 12.0 | 0.00 | 0.01 | 0.01 | 82 | 1014.0 |
| 20260503203148 | 49 | 114 | 1.0 | 7.0 | 0.00 | 0.00 | 0.00 | 80 | 1014.5 |
| 20260503201956 | 50 | 154 | 3.0 | 14.0 | 0.00 | 0.00 | 0.00 | 77 | 1014.8 |
| 20260503200738 | 51 | 252 | 4.0 | 16.0 | 0.00 | 0.00 | 0.00 | 74 | 1015.4 |
| 20260503195528 | 53 | 255 | 5.0 | 24.0 | 0.00 | 0.00 | 0.00 | 69 | 1015.5 |
| 20260503194312 | 55 | 271 | 4.0 | 24.0 | 0.00 | 0.00 | 0.00 | 65 | 1015.4 |
| 20260503193035 | 56 | 252 | 5.0 | 19.0 | 0.00 | 0.00 | 0.00 | 60 | 1015.2 |
| 20260503191826 | 58 | 277 | 4.0 | 19.0 | 0.00 | 0.00 | 0.00 | 55 | 1015.0 |
| 20260503190553 | 60 | 227 | 1.0 | 11.0 | 0.00 | 0.00 | 0.00 | 53 | 1014.7 |
| 20260503185320 | 60 | 332 | 3.0 | 12.0 | 0.00 | 0.00 | 0.00 | 51 | 1014.8 |
| 20260503184139 | 60 | 245 | 3.0 | 12.0 | 0.00 | 0.00 | 0.00 | 53 | 1014.9 |
| 20260503182914 | 62 | 132 | 4.0 | 18.0 | 0.00 | 0.00 | 0.00 | 48 | 1014.9 |
| 20260503181655 | 61 | 304 | 4.0 | 20.0 | 0.00 | 0.00 | 0.00 | 49 | 1015.0 |
| 20260503180510 | 62 | 161 | 4.0 | 20.0 | 0.00 | 0.00 | 0.00 | 47 | 1015.2 |
| 20260503175304 | 61 | 171 | 3.0 | 15.0 | 0.00 | 0.00 | 0.00 | 50 | 1015.4 |
| 20260503174048 | 61 | 277 | 3.0 | 14.0 | 0.00 | 0.00 | 0.00 | 49 | 1015.6 |
| 20260503172834 | 61 | 250 | 1.0 | 12.0 | 0.00 | 0.00 | 0.00 | 47 | 1015.6 |
| 20260503171556 | 62 | 119 | 3.0 | 11.0 | 0.00 | 0.00 | 0.00 | 48 | 1015.9 |
| 20260503170320 | 61 | 172 | 3.0 | 9.0 | 0.00 | 0.00 | 0.00 | 46 | 1016.3 |
| 20260503150311 | 58 | 265 | 3.0 | 14.0 | 0.00 | 0.00 | 0.00 | 51 | 1017.6 |
| 20260503130255 | 48 | 209 | 1.0 | 11.0 | 0.00 | 0.00 | 0.00 | 62 | 1018.1 |
| 20260503120216 | 43 | 299 | 0.0 | 1.0 | 0.00 | 0.00 | 0.00 | 71 | 1018.2 |
| 20260503110227 | 39 | 198 | 0.0 | 2.0 | 0.00 | 0.00 | 0.00 | 79 | 1017.7 |
| 20260503100213 | 38 | 120 | 0.0 | 1.0 | 0.00 | 0.00 | 0.00 | 78 | 1017.5 |
| 20260503090154 | 38 | 300 | 0.0 | 0.0 | 0.00 | 0.00 | 0.00 | 78 | 1017.7 |
| 20260503081213 | 38 | 295 | 0.0 | 0.0 | 0.00 | 0.00 | 0.00 | 78 | 1017.8 |
| 20260503072305 | 37 | 355 | 0.0 | 1.0 | 0.00 | 0.00 | 0.00 | 81 | 1017.8 |
| 20260503071111 | 37 | 355 | 0.0 | 0.0 | 0.00 | 0.00 | 0.00 | 81 | 1017.9 |
| 20260503054759 | 35 | 355 | 0.0 | 0.0 | 0.00 | 0.00 | 0.00 | 86 | 1018.7 |
| 20260503053620 | 35 | 355 | 0.0 | 0.0 | 0.00 | 0.00 | 0.00 | 86 | 1018.8 |
| 20260503052348 | 35 | 355 | 0.0 | 0.0 | 0.00 | 0.00 | 0.00 | 85 | 1018.8 |
| 20260503051128 | 35 | 355 | 0.0 | 0.0 | 0.00 | 0.00 | 0.00 | 85 | 1018.8 |
| 20260503045937 | 36 | 355 | 0.0 | 0.0 | 0.00 | 0.00 | 0.00 | 85 | 1018.9 |
| 20260503044739 | 35 | 355 | 0.0 | 0.0 | 0.00 | 0.00 | 0.00 | 84 | 1019.0 |
| 20260503043511 | 35 | 355 | 0.0 | 0.0 | 0.00 | 0.00 | 0.00 | 84 | 1018.9 |
| 20260503042237 | 35 | 355 | 0.0 | 0.0 | 0.00 | 0.00 | 0.00 | 83 | 1019.0 |
| 20260503041033 | 35 | 355 | 0.0 | 0.0 | 0.00 | 0.00 | 0.00 | 83 | 1018.9 |
| 20260503035759 | 36 | 355 | 0.0 | 0.0 | 0.00 | 0.00 | 0.00 | 82 | 1019.1 |
| 20260503034604 | 36 | 355 | 0.0 | 0.0 | 0.00 | 0.00 | 0.00 | 82 | 1019.0 |
| 20260503033423 | 37 | 355 | 0.0 | 0.0 | 0.00 | 0.00 | 0.00 | 80 | 1019.0 |
| 20260503032225 | 37 | 355 | 0.0 | 0.0 | 0.00 | 0.00 | 0.00 | 81 | 1019.1 |
| 20260503030954 | 37 | 355 | 0.0 | 0.0 | 0.00 | 0.00 | 0.00 | 79 | 1019.2 |
| 20260503025749 | 37 | 355 | 0.0 | 0.0 | 0.00 | 0.00 | 0.00 | 79 | 1019.1 |
| 20260503024517 | 38 | 355 | 0.0 | 0.0 | 0.00 | 0.00 | 0.00 | 76 | 1019.1 |
| 20260503023256 | 38 | 355 | 0.0 | 0.0 | 0.00 | 0.00 | 0.00 | 76 | 1019.0 |
| 20260503022037 | 38 | 355 | 0.0 | 0.0 | 0.00 | 0.00 | 0.00 | 75 | 1019.0 |
| 20260503020846 | 39 | 355 | 0.0 | 0.0 | 0.00 | 0.00 | 0.00 | 71 | 1019.0 |
| 20260503015626 | 40 | 355 | 0.0 | 0.0 | 0.00 | 0.00 | 0.00 | 72 | 1019.0 |
| 20260503014411 | 41 | 355 | 0.0 | 0.0 | 0.00 | 0.00 | 0.00 | 69 | 1018.9 |
| 20260503013215 | 41 | 355 | 0.0 | 0.0 | 0.00 | 0.00 | 0.00 | 71 | 1019.0 |
| 20260503011950 | 42 | 355 | 0.0 | 0.0 | 0.00 | 0.00 | 0.00 | 68 | 1018.8 |